Time,TemperatureF,DewpointF,PressureIn,WindDirection,WindDirectionDegrees,WindSpeedMPH,WindSpeedGustMPH,Humidity,HourlyPrecipIn,Conditions,Clouds,dailyrainin,SoftwareType,DateUTC
2013-08-16 00:08:00,59.9,58.0,30.06,East,100,5.0,6.0,94,0.00,,,0.00,weatherlink.com 1.10,2013-08-16 05:08:00,
2013-08-16 00:23:00,59.9,58.0,30.07,East,94,0.0,5.0,94,0.00,,,0.00,weatherlink.com 1.10,2013-08-16 05:23:00,
2013-08-16 00:38:00,60.0,58.0,30.07,East,94,0.0,6.0,94,0.00,,,0.00,weatherlink.com 1.10,2013-08-16 05:38:00,
2013-08-16 00:53:00,60.0,58.0,30.07,East,94,0.0,0.0,94,0.00,,,0.00,weatherlink.com 1.10,2013-08-16 05:53:00,
2013-08-16 01:08:00,59.9,58.0,30.07,East,94,0.0,5.0,94,0.00,,,0.00,weatherlink.com 1.10,2013-08-16 06:08:00,
2013-08-16 01:23:00,60.0,58.0,30.07,East,94,0.0,7.0,94,0.00,,,0.00,weatherlink.com 1.10,2013-08-16 06:23:00,
2013-08-16 01:38:00,60.1,58.0,30.07,East,100,2.0,7.0,94,0.00,,,0.00,weatherlink.com 1.10,2013-08-16 06:38:00,
2013-08-16 01:53:00,60.2,58.0,30.07,East,100,8.0,8.0,93,0.00,,,0.00,weatherlink.com 1.10,2013-08-16 06:53:00,
2013-08-16 02:08:00,60.1,58.0,30.07,East,90,0.0,7.0,93,0.00,,,0.00,weatherlink.com 1.10,2013-08-16 07:08:00,
2013-08-16 02:23:00,60.1,58.0,30.06,ESE,103,3.0,8.0,93,0.00,,,0.00,weatherlink.com 1.10,2013-08-16 07:23:00,
2013-08-16 02:38:00,60.1,58.0,30.06,ESE,109,0.0,5.0,93,0.00,,,0.00,weatherlink.com 1.10,2013-08-16 07:38:00,
2013-08-16 02:53:00,60.0,58.0,30.06,ESE,107,0.0,7.0,93,0.00,,,0.00,weatherlink.com 1.10,2013-08-16 07:53:00,
2013-08-16 03:08:00,60.0,58.0,30.06,ESE,107,0.0,5.0,93,0.00,,,0.00,weatherlink.com 1.10,2013-08-16 08:08:00,
2013-08-16 03:23:00,60.0,58.0,30.06,ESE,107,0.0,0.0,93,0.00,,,0.00,weatherlink.com 1.10,2013-08-16 08:23:00,
2013-08-16 03:38:00,60.0,58.0,30.07,ESE,107,0.0,0.0,94,0.00,,,0.00,weatherlink.com 1.10,2013-08-16 08:38:00,
2013-08-16 03:53:00,59.8,58.0,30.07,ESE,107,3.0,5.0,94,0.00,,,0.00,weatherlink.com 1.10,2013-08-16 08:53:00,
2013-08-16 04:08:00,59.8,58.0,30.07,ESE,107,0.0,4.0,94,0.00,,,0.00,weatherlink.com 1.10,2013-08-16 09:08:00,
2013-08-16 04:23:00,59.8,58.0,30.07,ESE,107,3.0,5.0,94,0.00,,,0.00,weatherlink.com 1.10,2013-08-16 09:23:00,
2013-08-16 04:38:00,59.8,58.0,30.07,East,94,5.0,5.0,94,0.00,,,0.00,weatherlink.com 1.10,2013-08-16 09:38:00,
2013-08-16 04:53:00,59.9,58.0,30.07,East,100,6.0,7.0,94,0.00,,,0.00,weatherlink.com 1.10,2013-08-16 09:53:00,
2013-08-16 05:08:00,59.6,58.0,30.07,East,98,3.0,10.0,94,0.01,,,0.01,weatherlink.com 1.10,2013-08-16 10:08:00,
2013-08-16 05:23:00,59.4,58.0,30.07,East,97,5.0,8.0,95,0.01,,,0.01,weatherlink.com 1.10,2013-08-16 10:23:00,
2013-08-16 05:38:00,59.4,58.0,30.07,ESE,114,4.0,8.0,94,0.01,,,0.01,weatherlink.com 1.10,2013-08-16 10:38:00,
2013-08-16 05:53:00,59.4,58.0,30.08,ESE,107,8.0,10.0,94,0.01,,,0.01,weatherlink.com 1.10,2013-08-16 10:53:00,
2013-08-16 06:08:00,59.3,58.0,30.08,East,96,5.0,9.0,94,0.00,,,0.01,weatherlink.com 1.10,2013-08-16 11:08:00,
2013-08-16 06:23:00,59.3,58.0,30.08,East,100,3.0,10.0,94,0.00,,,0.01,weatherlink.com 1.10,2013-08-16 11:23:00,
2013-08-16 06:38:00,59.3,58.0,30.09,ESE,109,9.0,10.0,94,0.00,,,0.01,weatherlink.com 1.10,2013-08-16 11:38:00,
2013-08-16 06:53:00,59.3,58.0,30.09,East,84,7.0,10.0,94,0.00,,,0.01,weatherlink.com 1.10,2013-08-16 11:53:00,
2013-08-16 07:08:00,59.4,58.0,30.09,East,90,7.0,10.0,94,0.00,,,0.01,weatherlink.com 1.10,2013-08-16 12:08:00,
2013-08-16 07:24:00,59.5,58.0,30.10,ESE,104,3.0,10.0,94,0.00,,,0.01,weatherlink.com 1.10,2013-08-16 12:24:00,
2013-08-16 07:39:00,59.6,58.0,30.10,ESE,107,3.0,9.0,93,0.00,,,0.01,weatherlink.com 1.10,2013-08-16 12:39:00,
2013-08-16 07:54:00,59.6,58.0,30.11,ESE,109,3.0,10.0,94,0.00,,,0.01,weatherlink.com 1.10,2013-08-16 12:54:00,
2013-08-16 08:09:00,59.7,58.0,30.11,East,99,9.0,13.0,93,0.00,,,0.01,weatherlink.com 1.10,2013-08-16 13:09:00,
2013-08-16 08:24:00,59.8,58.0,30.11,East,87,5.0,11.0,93,0.00,,,0.01,weatherlink.com 1.10,2013-08-16 13:24:00,
2013-08-16 08:39:00,60.0,58.0,30.12,East,81,5.0,10.0,93,0.00,,,0.01,weatherlink.com 1.10,2013-08-16 13:39:00,
2013-08-16 08:54:00,60.1,58.0,30.12,ESE,118,1.0,13.0,93,0.00,,,0.01,weatherlink.com 1.10,2013-08-16 13:54:00,
2013-08-16 09:09:00,60.4,58.0,30.12,East,82,7.0,10.0,92,0.00,,,0.01,weatherlink.com 1.10,2013-08-16 14:09:00,
2013-08-16 09:24:00,60.7,58.0,30.12,ESE,107,0.0,9.0,92,0.00,,,0.01,weatherlink.com 1.10,2013-08-16 14:24:00,
2013-08-16 09:39:00,61.2,59.0,30.12,East,97,9.0,11.0,91,0.00,,,0.01,weatherlink.com 1.10,2013-08-16 14:39:00,
2013-08-16 09:54:00,61.5,59.0,30.12,East,99,5.0,10.0,90,0.00,,,0.01,weatherlink.com 1.10,2013-08-16 14:54:00,
2013-08-16 10:09:00,61.7,59.0,30.12,East,89,9.0,11.0,89,0.00,,,0.01,weatherlink.com 1.10,2013-08-16 15:09:00,
2013-08-16 10:24:00,62.0,59.0,30.13,ESE,109,2.0,9.0,89,0.00,,,0.01,weatherlink.com 1.10,2013-08-16 15:24:00,
2013-08-16 10:39:00,62.2,59.0,30.13,ESE,112,1.0,8.0,89,0.00,,,0.01,weatherlink.com 1.10,2013-08-16 15:39:00,
2013-08-16 10:54:00,62.6,59.0,30.13,ESE,113,3.0,11.0,88,0.00,,,0.01,weatherlink.com 1.10,2013-08-16 15:54:00,
2013-08-16 11:09:00,63.3,59.0,30.13,ESE,111,0.0,13.0,85,0.00,,,0.01,weatherlink.com 1.10,2013-08-16 16:09:00,
2013-08-16 11:24:00,64.2,60.0,30.14,SE,126,3.0,13.0,85,0.00,,,0.01,weatherlink.com 1.10,2013-08-16 16:24:00,
2013-08-16 11:39:00,65.3,60.0,30.13,ESE,119,3.0,8.0,83,0.00,,,0.01,weatherlink.com 1.10,2013-08-16 16:39:00,
2013-08-16 11:54:00,67.2,60.0,30.13,SE,144,3.0,13.0,78,0.00,,,0.01,weatherlink.com 1.10,2013-08-16 16:54:00,
2013-08-16 12:09:00,68.4,61.0,30.13,East,92,13.0,14.0,76,0.00,,,0.01,weatherlink.com 1.10,2013-08-16 17:09:00,
2013-08-16 12:24:00,68.4,59.0,30.13,ESE,116,8.0,17.0,73,0.00,,,0.01,weatherlink.com 1.10,2013-08-16 17:24:00,
2013-08-16 12:39:00,68.6,60.0,30.12,SE,134,15.0,18.0,73,0.00,,,0.01,weatherlink.com 1.10,2013-08-16 17:39:00,
2013-08-16 12:54:00,69.0,60.0,30.12,ESE,107,8.0,16.0,73,0.00,,,0.01,weatherlink.com 1.10,2013-08-16 17:54:00,
2013-08-16 13:09:00,69.6,60.0,30.12,ESE,109,7.0,16.0,71,0.00,,,0.01,weatherlink.com 1.10,2013-08-16 18:09:00,
2013-08-16 13:24:00,69.5,61.0,30.12,ESE,106,9.0,15.0,73,0.00,,,0.01,weatherlink.com 1.10,2013-08-16 18:24:00,
2013-08-16 13:39:00,69.7,60.0,30.11,ESE,117,10.0,17.0,72,0.00,,,0.01,weatherlink.com 1.10,2013-08-16 18:39:00,
2013-08-16 13:54:00,70.3,60.0,30.11,ENE,70,8.0,13.0,70,0.00,,,0.01,weatherlink.com 1.10,2013-08-16 18:54:00,
2013-08-16 14:09:00,69.9,62.0,30.11,East,86,8.0,14.0,75,0.00,,,0.01,weatherlink.com 1.10,2013-08-16 19:09:00,
2013-08-16 14:24:00,70.8,60.0,30.11,SSE,159,3.0,14.0,68,0.00,,,0.01,weatherlink.com 1.10,2013-08-16 19:24:00,
2013-08-16 14:39:00,71.0,61.0,30.11,ESE,109,4.0,14.0,71,0.00,,,0.01,weatherlink.com 1.10,2013-08-16 19:39:00,
2013-08-16 14:54:00,70.7,60.0,30.10,SE,134,7.0,13.0,70,0.00,,,0.01,weatherlink.com 1.10,2013-08-16 19:54:00,
2013-08-16 15:09:00,70.1,60.0,30.10,ESE,116,8.0,11.0,70,0.00,,,0.01,weatherlink.com 1.10,2013-08-16 20:09:00,
2013-08-16 15:24:00,71.4,61.0,30.10,SSE,157,6.0,15.0,69,0.00,,,0.01,weatherlink.com 1.10,2013-08-16 20:24:00,
2013-08-16 15:39:00,71.1,60.0,30.10,South,176,6.0,14.0,68,0.00,,,0.01,weatherlink.com 1.10,2013-08-16 20:39:00,
2013-08-16 15:54:00,70.4,59.0,30.10,East,96,3.0,11.0,67,0.00,,,0.01,weatherlink.com 1.10,2013-08-16 20:54:00,
2013-08-16 16:09:00,70.0,59.0,30.10,ESE,118,2.0,14.0,68,0.00,,,0.01,weatherlink.com 1.10,2013-08-16 21:09:00,
2013-08-16 16:24:00,70.1,59.0,30.10,SSE,161,1.0,8.0,69,0.00,,,0.01,weatherlink.com 1.10,2013-08-16 21:24:00,
2013-08-16 16:40:00,69.9,59.0,30.10,East,85,2.0,9.0,68,0.00,,,0.01,weatherlink.com 1.10,2013-08-16 21:40:00,
2013-08-16 16:55:00,70.4,59.0,30.10,SE,130,1.0,6.0,67,0.00,,,0.01,weatherlink.com 1.10,2013-08-16 21:55:00,
2013-08-16 17:10:00,70.9,59.0,30.10,SE,126,3.0,7.0,66,0.00,,,0.01,weatherlink.com 1.10,2013-08-16 22:10:00,
2013-08-16 17:25:00,71.1,59.0,30.10,SE,125,1.0,9.0,66,0.00,,,0.01,weatherlink.com 1.10,2013-08-16 22:25:00,
2013-08-16 17:40:00,70.9,60.0,30.09,East,96,5.0,9.0,68,0.00,,,0.01,weatherlink.com 1.10,2013-08-16 22:40:00,
2013-08-16 17:55:00,71.0,60.0,30.09,ESE,120,7.0,8.0,69,0.00,,,0.01,weatherlink.com 1.10,2013-08-16 22:55:00,
2013-08-16 18:10:00,71.0,60.0,30.09,ESE,122,7.0,7.0,69,0.00,,,0.01,weatherlink.com 1.10,2013-08-16 23:10:00,
2013-08-16 18:25:00,70.9,61.0,30.09,East,100,5.0,7.0,70,0.00,,,0.01,weatherlink.com 1.10,2013-08-16 23:25:00,
2013-08-16 18:40:00,70.6,61.0,30.09,East,99,1.0,10.0,72,0.00,,,0.01,weatherlink.com 1.10,2013-08-16 23:40:00,
2013-08-16 18:55:00,70.4,61.0,30.09,ESE,111,5.0,8.0,72,0.00,,,0.01,weatherlink.com 1.10,2013-08-16 23:55:00,
2013-08-16 19:10:00,70.0,61.0,30.09,ESE,123,1.0,9.0,72,0.00,,,0.01,weatherlink.com 1.10,2013-08-17 00:10:00,
2013-08-16 19:25:00,69.8,61.0,30.09,ESE,104,4.0,8.0,73,0.00,,,0.01,weatherlink.com 1.10,2013-08-17 00:25:00,
2013-08-16 19:40:00,69.4,61.0,30.09,ESE,119,0.0,7.0,74,0.00,,,0.01,weatherlink.com 1.10,2013-08-17 00:40:00,
2013-08-16 19:55:00,68.9,60.0,30.09,SE,127,0.0,0.0,74,0.00,,,0.01,weatherlink.com 1.10,2013-08-17 00:55:00,
2013-08-16 20:10:00,68.3,60.0,30.10,SE,127,0.0,0.0,74,0.00,,,0.01,weatherlink.com 1.10,2013-08-17 01:10:00,
2013-08-16 20:25:00,68.2,59.0,30.10,SSE,148,2.0,5.0,73,0.00,,,0.01,weatherlink.com 1.10,2013-08-17 01:25:00,
2013-08-16 20:40:00,68.3,59.0,30.10,SE,143,1.0,6.0,72,0.00,,,0.01,weatherlink.com 1.10,2013-08-17 01:40:00,
2013-08-16 20:55:00,68.3,59.0,30.11,SE,137,2.0,7.0,72,0.00,,,0.01,weatherlink.com 1.10,2013-08-17 01:55:00,
2013-08-16 21:10:00,68.0,59.0,30.11,SSE,153,0.0,4.0,72,0.00,,,0.01,weatherlink.com 1.10,2013-08-17 02:10:00,
2013-08-16 21:25:00,68.1,58.0,30.11,SE,136,3.0,5.0,71,0.00,,,0.01,weatherlink.com 1.10,2013-08-17 02:25:00,
2013-08-16 21:40:00,68.1,58.0,30.11,SE,136,0.0,0.0,71,0.00,,,0.01,weatherlink.com 1.10,2013-08-17 02:40:00,
2013-08-16 21:55:00,68.0,58.0,30.11,SE,136,3.0,6.0,71,0.00,,,0.01,weatherlink.com 1.10,2013-08-17 02:55:00,
2013-08-16 22:10:00,68.0,58.0,30.11,SE,146,0.0,6.0,71,0.00,,,0.01,weatherlink.com 1.10,2013-08-17 03:10:00,
2013-08-16 22:25:00,68.0,58.0,30.11,SE,140,0.0,6.0,70,0.00,,,0.01,weatherlink.com 1.10,2013-08-17 03:25:00,
2013-08-16 22:39:00,68.0,58.0,30.11,SE,140,0.0,0.0,70,0.00,,,0.01,weatherlink.com 1.10,2013-08-17 03:39:00,
2013-08-16 22:54:00,67.8,58.0,30.11,SE,140,2.0,4.0,70,0.00,,,0.01,weatherlink.com 1.10,2013-08-17 03:54:00,
2013-08-16 23:09:00,67.6,58.0,30.11,SE,140,0.0,4.0,71,0.00,,,0.01,weatherlink.com 1.10,2013-08-17 04:09:00,
2013-08-16 23:24:00,67.1,58.0,30.11,SE,140,0.0,0.0,72,0.00,,,0.01,weatherlink.com 1.10,2013-08-17 04:24:00,
2013-08-16 23:39:00,67.1,58.0,30.11,SE,140,0.0,0.0,72,0.00,,,0.01,weatherlink.com 1.10,2013-08-17 04:39:00,
2013-08-16 23:54:00,67.0,58.0,30.11,SE,140,0.0,0.0,73,0.00,,,0.01,weatherlink.com 1.10,2013-08-17 04:54:00,